Time,TemperatureF,DewpointF,PressureIn,WindDirection,WindDirectionDegrees,WindSpeedMPH,WindSpeedGustMPH,Humidity,HourlyPrecipIn,Conditions,Clouds,dailyrainin,SoftwareType,DateUTC
2017-06-22 00:08:00,76.1,44.0,29.49,NE,53,0.0,-999.0,32,-99.99,,,0.00,weatherlink.com 1.10,2017-06-22 06:08:00,
2017-06-22 00:23:00,75.4,43.0,29.49,NE,53,0.0,-999.0,32,-99.99,,,0.00,weatherlink.com 1.10,2017-06-22 06:23:00,
2017-06-22 00:38:00,74.8,43.0,29.49,NE,53,0.0,-999.0,32,-99.99,,,0.00,weatherlink.com 1.10,2017-06-22 06:38:00,
2017-06-22 00:53:00,74.4,43.0,29.49,NE,53,0.0,-999.0,33,-99.99,,,0.00,weatherlink.com 1.10,2017-06-22 06:53:00,
2017-06-22 01:09:00,74.0,45.0,29.50,NE,53,0.0,-999.0,35,-99.99,,,0.00,weatherlink.com 1.10,2017-06-22 07:09:00,
2017-06-22 01:23:00,73.7,44.0,29.50,NE,53,0.0,-999.0,35,-99.99,,,0.00,weatherlink.com 1.10,2017-06-22 07:23:00,
2017-06-22 01:38:00,73.6,46.0,29.50,NE,53,0.0,-999.0,37,-99.99,,,0.00,weatherlink.com 1.10,2017-06-22 07:38:00,
2017-06-22 01:54:00,73.5,47.0,29.50,NE,53,0.0,-999.0,39,-99.99,,,0.00,weatherlink.com 1.10,2017-06-22 07:54:00,
2017-06-22 02:09:00,73.5,48.0,29.50,NE,53,0.0,-999.0,40,-99.99,,,0.00,weatherlink.com 1.10,2017-06-22 08:09:00,
2017-06-22 02:24:00,73.6,48.0,29.50,NE,53,0.0,-999.0,40,-99.99,,,0.00,weatherlink.com 1.10,2017-06-22 08:24:00,
2017-06-22 02:39:00,73.7,48.0,29.49,NE,53,0.0,-999.0,41,-99.99,,,0.00,weatherlink.com 1.10,2017-06-22 08:39:00,
2017-06-22 02:54:00,73.6,48.0,29.51,NE,53,0.0,-999.0,41,-99.99,,,0.00,weatherlink.com 1.10,2017-06-22 08:54:00,
2017-06-22 03:09:00,73.3,49.0,29.51,NE,53,0.0,-999.0,43,-99.99,,,0.00,weatherlink.com 1.10,2017-06-22 09:09:00,
2017-06-22 03:24:00,72.9,48.0,29.52,NE,53,0.0,-999.0,42,-99.99,,,0.00,weatherlink.com 1.10,2017-06-22 09:24:00,
2017-06-22 03:39:00,72.5,49.0,29.52,NE,53,0.0,-999.0,44,-99.99,,,0.00,weatherlink.com 1.10,2017-06-22 09:39:00,
2017-06-22 03:54:00,72.2,50.0,29.51,NE,53,0.0,-999.0,45,-99.99,,,0.00,weatherlink.com 1.10,2017-06-22 09:54:00,
2017-06-22 04:09:00,72.0,50.0,29.53,NE,53,0.0,-999.0,46,-99.99,,,0.00,weatherlink.com 1.10,2017-06-22 10:09:00,
2017-06-22 04:24:00,71.5,50.0,29.51,NE,53,0.0,-999.0,46,-99.99,,,0.00,weatherlink.com 1.10,2017-06-22 10:24:00,
2017-06-22 04:39:00,71.1,49.0,29.52,NE,53,0.0,-999.0,46,-99.99,,,0.00,weatherlink.com 1.10,2017-06-22 10:39:00,
2017-06-22 04:54:00,70.8,49.0,29.52,NE,53,0.0,-999.0,46,-99.99,,,0.00,weatherlink.com 1.10,2017-06-22 10:54:00,
2017-06-22 05:09:00,70.5,49.0,29.54,NE,53,0.0,-999.0,46,-99.99,,,0.00,weatherlink.com 1.10,2017-06-22 11:09:00,
2017-06-22 05:24:00,70.2,49.0,29.54,NE,53,0.0,-999.0,47,-99.99,,,0.00,weatherlink.com 1.10,2017-06-22 11:24:00,
2017-06-22 05:39:00,70.0,49.0,29.52,NE,53,0.0,-999.0,48,-99.99,,,0.00,weatherlink.com 1.10,2017-06-22 11:39:00,
2017-06-22 05:54:00,70.1,50.0,29.52,NE,53,0.0,-999.0,49,-99.99,,,0.00,weatherlink.com 1.10,2017-06-22 11:54:00,
2017-06-22 06:09:00,69.8,50.0,29.53,NE,53,0.0,-999.0,50,-99.99,,,0.00,weatherlink.com 1.10,2017-06-22 12:09:00,
2017-06-22 06:24:00,69.2,51.0,29.54,NE,53,0.0,-999.0,52,-99.99,,,0.00,weatherlink.com 1.10,2017-06-22 12:24:00,
2017-06-22 06:39:00,68.3,51.0,29.55,NE,53,0.0,-999.0,55,-99.99,,,0.00,weatherlink.com 1.10,2017-06-22 12:39:00,
2017-06-22 06:54:00,67.7,52.0,29.55,NE,53,0.0,-999.0,58,-99.99,,,0.00,weatherlink.com 1.10,2017-06-22 12:54:00,
2017-06-22 07:09:00,67.2,52.0,29.56,NE,53,0.0,-999.0,59,-99.99,,,0.00,weatherlink.com 1.10,2017-06-22 13:09:00,
2017-06-22 07:24:00,67.1,53.0,29.56,NE,53,0.0,-999.0,61,-99.99,,,0.00,weatherlink.com 1.10,2017-06-22 13:24:00,
2017-06-22 07:39:00,67.7,55.0,29.54,NE,53,0.0,-999.0,63,-99.99,,,0.00,weatherlink.com 1.10,2017-06-22 13:39:00,